Theta_e
317 317 316 317 318 315 315 317 315 316 320 320 320 320 319 319 318 318 318 318 318 318 319 318 318 318 319 319 320 320 321 323 324 327 329 331 332 333 332 332 332 332 333 332
318 316 312 313 316 317 316 316 316 317 318 318 316 316 316 316 316 316 315 315 314 314 314 315 315 316 317 318 318 319 319 320 322 324 327 328 329 330 331 331 330 330 331 332
309 311 311 315 319 320 316 316 314 315 317 317 317 314 313 313 314 315 314 314 313 313 314 315 315 315 316 316 317 318 318 319 319 321 324 326 328 329 330 330 331 332 330 329
311 312 312 313 313 315 315 316 316 316 316 312 315 313 311 312 313 313 313 313 313 314 314 314 313 313 313 314 316 316 316 315 316 317 321 324 326 328 329 328 329 330 330 330
312 313 314 314 312 313 313 314 314 313 314 314 313 315 311 312 312 312 312 314 313 313 313 312 312 312 311 310 312 314 314 314 314 316 320 322 325 326 326 327 327 327 328 328
312 313 313 312 312 314 313 315 315 316 315 318 312 313 310 313 312 312 314 314 313 312 312 311 309 310 311 312 313 314 315 316 319 319 319 321 323 325 325 325 326 326 326 326
313 314 314 314 316 314 314 315 320 320 320 312 313 312 312 312 312 312 313 313 313 313 312 312 312 312 312 312 311 310 310 310 313 316 320 321 323 324 325 325 324 322 322 322
314 314 314 314 313 315 315 314 311 312 314 312 313 315 312 312 313 313 312 312 312 312 312 313 312 311 310 309 309 308 307 306 306 307 308 308 309 309 310 309 309 310 310 310
313 313 312 313 314 313 315 317 313 313 313 314 311 312 312 313 312 312 312 311 312 312 313 313 310 309 307 306 304 305 304 303 303 304 305 305 305 305 306 306 307 307 307 306
311 313 310 312 314 314 315 314 316 315 318 313 309 311 312 311 310 311 313 312 312 311 312 313 311 307 305 304 303 303 303 302 302 302 302 302 302 302 302 303 303 302 302 303
310 311 312 312 314 314 314 315 314 314 313 314 312 311 311 311 312 313 313 312 311 311 310 311 311 307 305 303 302 302 302 301 301 301 301 301 300 300 300 301 300 300 300 300
309 312 314 312 310 310 313 312 313 313 315 314 314 312 311 312 312 311 311 311 311 310 310 310 310 306 304 303 301 301 300 300 299 299 299 299 299 299 299 299 299 299 299 299
310 313 316 314 311 310 314 313 312 313 312 316 314 312 311 312 312 311 311 311 312 312 311 311 310 307 304 303 301 300 299 298 298 298 298 298 298 298 298 297 297 297 297 298
310 313 314 315 311 312 312 313 314 314 317 315 314 311 311 310 310 310 311 311 311 311 311 311 311 308 306 304 302 300 299 297 297 296 297 297 297 297 296 296 296 296 296 297
311 315 313 312 310 310 311 312 312 314 315 314 312 311 310 310 310 310 310 310 310 310 310 310 311 311 308 305 303 300 299 297 296 296 296 296 296 296 296 296 296 296 296 296
311 314 312 311 311 309 311 310 310 312 313 312 313 313 312 311 311 310 310 310 310 310 310 310 311 310 309 306 304 300 299 297 296 296 296 295 295 295 295 294 294 294 294 294
312 312 311 311 310 312 313 311 310 309 309 310 312 311 311 311 310 310 309 309 309 309 309 310 310 311 309 306 303 301 298 296 295 295 294 293 293 293 292 292 292 292 293 293
311 312 312 310 309 310 308 306 308 310 309 309 309 310 310 310 309 308 308 308 309 309 309 309 309 310 311 307 303 300 298 295 295 294 292 291 290 290 290 289 289 289 289 290
309 310 311 311 311 308 306 305 305 305 306 307 307 307 308 307 307 308 308 308 308 308 308 308 308 309 309 307 301 298 295 294 293 292 290 289 288 288 287 287 287 287 287 287
308 309 310 310 310 310 307 306 306 306 308 306 306 307 307 307 309 309 307 308 308 307 307 307 305 304 305 301 298 296 294 293 291 289 287 286 286 285 285 285 285 285 285 286
308 309 310 311 310 310 306 306 306 308 307 306 306 307 307 307 307 308 307 307 304 303 302 299 298 298 298 296 294 294 292 291 288 286 284 284 283 283 283 283 283 283 284 285
308 308 310 310 310 311 306 306 306 306 306 306 306 306 306 306 306 306 305 305 303 301 296 294 294 291 290 290 291 291 289 283 283 282 282 282 282 282 282 282 282 282 284 285
307 307 309 309 309 308 308 307 307 306 307 306 305 306 305 305 304 303 304 303 301 297 293 290 289 286 285 286 288 285 281 280 280 280 280 280 280 280 280 281 281 282 282 283
302 303 305 306 306 306 306 305 303 303 304 305 304 305 303 303 302 301 300 297 293 291 289 286 284 283 280 280 281 279 277 278 279 279 278 279 279 279 279 279 279 280 280 280
303 302 304 303 303 303 302 302 303 302 302 301 300 300 301 301 300 299 299 294 291 289 286 284 283 281 278 276 276 276 276 277 278 277 277 277 277 277 277 277 277 277 277 277
300 300 302 302 301 301 301 302 301 302 301 300 300 299 298 297 298 297 295 291 288 286 283 282 280 277 275 274 273 274 275 276 276 276 275 275 275 275 275 275 276 276 276 276
Wind_Speed
9 6 11 16 15 3 6 8 10 5 6 4 12 15 17 17 17 17 17 17 19 20 24 24 23 21 20 20 19 17 17 17 17 18 19 19 21 20 22 23 21 20 20 20
4 13 12 6 12 9 6 8 8 4 4 3 11 16 18 20 18 19 20 20 20 19 19 21 20 18 20 21 19 19 21 20 18 18 17 18 17 19 20 20 20 22 20 19
10 1 8 8 9 12 12 11 9 7 5 10 12 15 19 16 19 18 20 20 19 18 17 15 14 15 18 20 20 19 18 19 20 18 15 14 14 13 12 15 16 14 16 17
9 6 11 11 13 12 12 10 9 7 5 5 2 7 8 6 11 13 13 13 14 11 10 11 12 14 14 14 14 14 15 15 16 16 17 18 16 15 13 13 10 10 12 14
3 10 12 12 11 11 5 4 7 8 9 9 13 7 6 1 9 14 10 4 2 2 5 7 6 7 5 5 5 8 9 11 11 12 15 16 17 15 11 8 6 8 9 11
2 1 9 10 8 12 6 7 5 3 4 7 15 12 7 7 7 1 3 5 4 3 3 1 1 1 2 3 3 3 4 3 3 6 10 13 13 13 10 8 8 8 8 8
6 8 4 6 9 9 13 12 3 4 5 7 3 9 13 7 4 4 2 4 5 4 2 1 3 4 5 6 6 7 7 8 7 6 5 4 5 7 7 6 5 4 5 5
9 7 14 13 13 9 19 14 4 5 5 1 4 8 3 6 2 2 5 5 8 6 3 3 3 3 5 6 6 6 6 7 7 7 7 6 5 3 2 1 2 3 4 5
8 7 12 14 7 10 14 13 3 3 2 3 7 9 10 9 7 6 4 2 5 4 3 3 3 2 3 4 4 4 5 5 5 5 5 4 3 3 2 2 2 3 4 6
6 4 3 7 6 8 6 10 4 4 4 6 7 7 7 3 8 5 9 8 6 3 1 2 3 3 2 2 2 3 4 4 4 4 4 3 3 3 2 2 3 4 5 6
5 2 2 7 12 14 8 10 7 5 7 3 4 2 3 5 6 8 4 4 8 7 5 4 4 3 3 2 1 2 2 3 3 4 4 3 3 3 3 3 4 6 7 8
9 3 5 7 2 6 13 15 16 4 6 7 7 7 3 5 9 5 6 1 4 3 5 4 6 6 5 4 3 3 2 2 2 2 3 3 3 3 4 4 5 6 6 7
12 6 4 4 2 3 10 17 15 15 3 10 5 3 0 7 6 2 4 5 2 4 4 6 8 10 11 11 9 7 4 2 2 1 1 1 2 2 3 4 5 6 6 7
13 6 11 11 4 12 9 15 18 14 9 16 16 18 9 7 6 10 13 13 12 13 13 9 9 12 14 13 12 10 7 6 5 4 3 2 1 0 1 3 4 5 6 6
9 5 10 16 1 5 8 11 15 18 24 18 22 24 19 17 15 13 12 10 11 11 12 12 11 9 17 17 14 12 11 10 8 7 5 4 3 1 1 2 3 5 6 7
9 4 4 2 15 11 3 8 14 19 22 21 24 25 17 19 17 17 16 12 12 13 14 12 12 11 16 19 19 17 15 13 11 8 7 6 4 3 2 2 3 4 6 7
9 7 7 8 9 8 8 20 19 17 20 20 20 22 17 17 16 15 13 14 16 16 14 15 14 12 18 21 22 20 17 15 13 11 9 6 5 4 3 2 3 4 6 7
7 7 6 4 3 13 13 15 19 22 22 19 20 21 22 21 20 18 14 16 18 18 17 17 16 19 19 20 21 19 18 15 13 11 9 7 6 5 3 2 3 5 7 8
14 11 6 6 9 8 8 11 18 16 21 16 19 23 22 18 18 20 14 18 17 17 16 21 22 20 20 18 20 22 18 17 15 13 11 9 7 4 3 3 5 7 9 10
10 11 9 6 6 10 15 20 12 8 12 19 21 20 18 18 12 13 9 8 9 17 22 18 12 11 8 14 20 20 18 16 13 11 10 7 5 3 1 3 6 8 9 10
5 8 15 14 12 7 14 2 6 10 13 18 14 17 19 15 14 16 12 10 3 7 10 7 5 5 6 12 16 15 14 13 13 12 9 6 3 1 2 4 6 7 9 9
12 7 9 11 12 14 19 7 15 18 12 13 10 9 8 12 12 12 10 11 6 6 4 2 2 6 4 6 11 13 14 11 12 11 9 6 3 1 1 4 6 7 7 8
6 11 8 8 6 7 4 17 8 10 11 5 5 4 4 7 11 13 12 11 4 5 4 6 8 9 9 6 9 14 10 10 10 9 7 5 3 1 2 4 5 6 7 8
6 6 4 3 13 15 9 3 1 1 3 6 7 5 3 9 10 12 10 5 3 6 7 10 13 11 12 10 11 12 9 9 9 8 5 4 3 3 4 5 3 4 5 6
6 8 6 8 17 8 13 10 5 8 8 8 5 7 7 6 13 9 10 4 5 8 10 12 14 14 13 12 12 10 9 8 9 8 6 5 3 4 3 1 2 3 3 4
6 10 8 9 4 5 13 5 3 7 9 9 6 8 5 7 11 7 6 4 9 11 12 12 10 20 16 13 11 9 9 7 7 8 6 5 4 1 1 3 3 3 3 6
Wind_Direction
184 204 208 206 214 255 303 214 240 200 83 284 246 257 262 266 267 262 258 256 257 255 259 258 254 252 250 245 242 232 230 230 225 223 223 227 230 231 236 238 236 236 236 235
171 227 225 249 217 212 229 226 231 270 244 257 274 272 270 263 258 254 258 255 256 263 262 260 253 254 252 248 244 238 237 234 225 224 223 227 233 240 242 242 243 237 234 236
214 353 178 202 190 208 224 236 245 260 319 251 289 279 248 250 247 250 256 258 264 265 269 273 270 257 250 246 239 237 236 236 231 226 225 225 229 236 241 239 240 239 236 234
238 168 196 197 207 209 228 227 250 266 272 272 91 289 276 254 242 229 248 249 259 267 271 263 261 256 249 252 251 244 244 239 234 227 226 223 225 229 236 234 240 236 235 237
160 181 190 200 203 196 244 150 218 240 257 283 257 249 246 220 261 253 245 225 230 285 295 276 273 289 282 278 249 245 243 237 231 223 223 226 230 237 240 231 236 240 241 241
145 53 205 211 188 201 140 155 158 199 248 254 235 218 260 188 259 201 132 163 201 325 311 323 123 108 83 77 86 108 144 150 191 217 221 225 233 237 242 244 253 258 255 253
172 184 161 175 156 187 184 168 153 211 208 251 100 208 260 279 210 199 231 294 302 303 245 202 144 125 97 77 68 75 86 82 86 107 126 185 223 239 247 257 264 273 270 267
184 194 186 191 193 185 196 189 202 255 217 233 143 229 234 268 47 259 242 276 297 281 193 189 135 109 99 87 79 80 77 75 77 90 96 102 130 111 104 44 329 316 312 297
197 210 184 183 198 180 195 215 288 292 116 273 216 235 280 244 219 203 242 311 325 314 197 169 123 80 71 68 71 81 93 86 82 83 77 81 84 87 70 9 346 322 321 302
204 156 190 162 205 233 224 174 175 225 229 241 244 253 241 206 172 119 103 66 36 5 352 181 179 165 144 111 77 80 83 87 90 87 94 82 66 57 34 20 354 337 316 319
167 238 88 155 209 197 189 205 220 252 223 261 297 249 110 187 124 126 103 57 18 351 328 254 225 211 195 172 138 102 86 102 99 104 98 88 65 52 32 19 357 343 343 336
196 179 171 196 76 292 236 217 211 216 202 235 283 263 143 123 141 81 3 76 333 334 301 257 229 227 224 209 206 204 185 158 130 114 102 80 55 43 29 13 358 350 348 344
168 199 165 191 206 212 225 219 222 228 230 236 218 238 142 150 232 339 8 8 12 334 278 234 223 220 220 214 209 210 211 203 181 153 140 83 49 32 7 348 348 347 345 344
174 174 219 222 239 174 202 213 220 228 231 241 242 259 233 192 222 285 294 301 286 298 301 279 242 229 225 216 214 207 202 203 206 194 190 183 167 65 343 337 342 347 347 346
193 214 229 247 103 226 208 210 213 214 234 237 253 255 258 268 276 282 300 301 300 288 283 276 270 234 224 221 213 209 207 211 204 197 197 203 215 237 309 329 337 340 347 349
202 216 219 269 243 217 193 217 226 224 239 252 259 265 274 275 283 281 282 287 278 270 273 279 271 242 221 216 213 208 207 205 202 197 200 214 219 235 262 301 327 345 347 343
185 164 180 231 225 231 234 226 235 246 247 245 255 262 271 271 265 269 276 285 274 272 274 272 264 247 227 215 207 203 200 202 200 196 201 206 219 222 243 290 316 335 331 325
166 202 201 238 139 238 242 243 231 237 249 248 256 264 261 267 275 276 281 272 270 269 271 266 270 264 243 221 200 195 192 198 198 192 197 199 208 219 240 286 317 326 316 313
212 191 222 224 218 265 285 230 228 233 249 250 257 261 264 273 270 272 260 255 260 267 271 274 278 274 263 203 190 187 190 192 192 192 196 198 207 220 260 306 321 318 316 312
251 230 219 204 228 236 244 250 234 231 257 251 246 259 263 265 271 274 282 277 260 255 263 282 289 276 245 187 192 188 181 181 183 179 187 191 202 213 281 310 317 311 314 310
194 206 220 227 235 255 251 204 109 193 236 254 239 243 264 270 270 282 297 288 247 278 292 290 275 250 223 187 185 172 169 169 159 175 173 177 181 242 298 306 320 323 320 321
188 199 221 234 238 247 241 142 212 231 259 266 283 277 285 294 301 305 298 293 280 256 250 275 146 108 112 160 167 152 146 146 164 162 165 168 168 159 304 337 345 336 337 334
221 211 215 210 220 246 239 218 224 255 263 279 307 288 284 288 290 298 296 295 250 263 160 150 141 123 102 117 155 135 139 156 156 153 146 138 128 75 14 19 355 356 358 350
226 248 246 239 248 252 276 286 299 142 245 263 269 295 279 284 289 290 292 261 177 168 173 149 143 146 121 128 127 137 145 148 144 135 124 112 98 62 22 25 357 8 5 352
221 155 212 250 260 309 288 268 237 214 228 254 255 239 229 265 277 269 283 216 175 176 163 164 159 148 129 131 133 139 139 146 139 128 122 97 57 37 49 349 358 15 351 336
193 230 226 243 256 254 267 281 193 201 207 218 224 276 252 211 261 272 266 184 164 167 162 148 157 134 128 133 131 131 130 134 132 125 116 106 101 65 342 358 9 348 330 324